Change the Weather History Date:

Saturday, March 29, 2014

  Actual Average Record
Temperature  
Mean Temperature 62 °F -  
Max Temperature 71 °F 68 °F 90 °F (2004)
Min Temperature 55 °F 50 °F 37 °F (1936)
Degree Days  
Heating Degree Days 2    
Growing Degree Days 12 (Base 50)    
Moisture  
Dew Point 51 °F    
Average Humidity 68    
Maximum Humidity 81    
Minimum Humidity 51    
Precipitation  
Precipitation 0.00 in - - ()
Sea Level Pressure  
Sea Level Pressure 30.05 in    
Wind  
Wind Speed 2 mph (SW)    
Max Wind Speed 13 mph    
Max Gust Speed 18 mph    
Visibility 10 miles    
Events      
Averages and records for this station are not official NWS values.
T = Trace of Precipitation, MM = Missing Value Source: NWS Daily Summary

Daily Weather History Graph

Daily Weather History Graph

Search for Another Location

Airport or City:

Trip Planner

Search our weather history database for the weather conditions in past years. The results will help you decide how hot, cold, wet, or windy it might be!

Date:

Astronomy

Mar. 29, 2014 Rise Set
Actual Time 6:45 AM PDT 7:12 PM PDT
Civil Twilight 6:19 AM PDT 7:37 PM PDT
Nautical Twilight 5:50 AM PDT 8:07 PM PDT
Astronomical Twilight 5:20 AM PDT 8:37 PM PDT
Moon 5:53 AM PDT (3/29) 6:24 PM PDT (3/29)
Length of Visible Light 13h 17m
Length of Day
12h 27m
Waning Crescent, 1% of the Moon is Illuminated
Mar 29
Waning Crescent
Mar 30
New
Apr 7
First Quarter
Apr 15
Full
Apr 22
Last Quarter

Hourly Weather History & Observations

Time (PDT) Temp. Dew Point Humidity Pressure Visibility Wind Dir Wind Speed Gust Speed Precip Events Conditions
12:51 AM 57.9 °F 52.0 °F 81% 30.14 in 10.0 mi Calm Calm - N/A   Clear
1:51 AM 57.9 °F 51.1 °F 78% 30.14 in 10.0 mi Calm Calm - N/A   Clear
2:51 AM 57.0 °F 51.1 °F 81% 30.12 in 9.0 mi Calm Calm - N/A   Clear
3:51 AM 57.0 °F 51.1 °F 81% 30.10 in 9.0 mi Calm Calm - N/A   Clear
4:51 AM 57.0 °F 50.0 °F 77% 30.10 in 9.0 mi Calm Calm - N/A   Clear
5:51 AM 55.9 °F 48.9 °F 77% 30.10 in 10.0 mi Calm Calm - N/A   Clear
6:51 AM 55.9 °F 48.0 °F 75% 30.10 in 10.0 mi Calm Calm - N/A   Clear
7:51 AM 59.0 °F 50.0 °F 72% 30.11 in 10.0 mi Calm Calm - N/A   Clear
8:51 AM 62.1 °F 52.0 °F 70% 30.10 in 8.0 mi Calm Calm - N/A   Clear
9:51 AM 66.0 °F 50.0 °F 56% 30.10 in 9.0 mi Calm Calm - N/A   Clear
10:51 AM 70.0 °F 51.1 °F 51% 30.09 in 10.0 mi SSW 5.8 mph - N/A   Clear
11:51 AM 69.1 °F 53.1 °F 57% 30.07 in 10.0 mi SW 6.9 mph - N/A   Clear
12:51 PM 68.0 °F 52.0 °F 56% 30.07 in 10.0 mi SW 10.4 mph - N/A   Clear
1:51 PM 69.1 °F 52.0 °F 54% 30.04 in 10.0 mi SW 10.4 mph - N/A   Clear
2:51 PM 66.9 °F 50.0 °F 54% 30.03 in 10.0 mi WSW 12.7 mph - N/A   Clear
3:51 PM 66.0 °F 53.1 °F 63% 30.01 in 10.0 mi WSW 11.5 mph 18.4 mph N/A   Clear
4:51 PM 66.0 °F 50.0 °F 56% 29.98 in 10.0 mi SW 8.1 mph - N/A   Clear
5:51 PM 64.9 °F 50.0 °F 58% 29.98 in 10.0 mi SW 8.1 mph - N/A   Clear
6:51 PM 63.0 °F 52.0 °F 67% 29.98 in 10.0 mi WSW 5.8 mph - N/A   Clear
7:51 PM 63.0 °F 53.1 °F 70% 29.98 in 10.0 mi Calm Calm - N/A   Clear
8:51 PM 63.0 °F 53.1 °F 70% 29.99 in 10.0 mi South 4.6 mph - N/A   Clear
9:51 PM 62.1 °F 53.1 °F 72% 29.99 in 10.0 mi Calm Calm - N/A   Clear
10:51 PM 61.0 °F 54.0 °F 78% 29.99 in 10.0 mi South 3.5 mph - N/A   Clear
11:51 PM 61.0 °F 53.1 °F 75% 29.99 in 10.0 mi West 5.8 mph - N/A   Clear